Погода в Секачах

Россия / Волгоградская область     50°29′50″N   43°37′21″E
темп.,
°C
ветер,
м/с
пор.,
м/с
влажн.,
%
обл.,
%
осадки,
мм/ч
давл.,
гПа
погр.,
м
19 мая, ср
ср1900:00+15ююз46964 0.2 1009143
03:00+13ююз369711 0.4 1009152
06:00+15юз46880 0.0 1011211
09:00+20юв11576 0.0 1010646
12:00+23вюв4643100 0.0 10101322
15:00+24юв5850100 0.0 1008904
18:00+15юз81483100 0.2 1011493
21:00+14ю248698 0.3 1012210
20 мая, чт
чт2000:00+12ююв2393100 0.3 101152
03:00+11ю489536 0.3 1011220
06:00+12ю589222 0.0 1011351
09:00+14ююз6882100 0.0 1011816
12:00+15ю597639 0.1 1011948
15:00+17ююз686668 0.2 1011961
18:00+17юз597141 0.1 10111058
21:00+13ююз368616 0.1 1013106
21 мая, пт
пт2100:00+12ююз489310 0.0 1014158
03:00+11юз49935 0.0 1015170
06:00+13юз378436 0.0 1016191
09:00+18ююз4666100 0.0 1017699
12:00+22ююз3550100 0.0 10161333
15:00+23ю4650100 0.0 10161338
18:00+21ююв2366100 0.0 101669
21:00+18в4763100 0.0 101697
22 мая, сб
сб2200:00+18всв4106494 0.0 1015205
03:00+15в467371 0.0 101589
06:00+16вюв4107195 0.0 1015220
09:00+23юв7124899 0.0 1014779
12:00+27ююв7103817 0.0 10131467
15:00+29ю583768 0.0 10121778
18:00+27всв2251100 0.0 101211
21:00+21вюв3559100 0.0 101256
23 мая, вс
вс2300:00+21юв41248100 0.0 1012221
03:00+20юв4944100 0.0 1012127
06:00+19вюв5125382 0.0 1012207
09:00+25юв61348100 0.0 1011538
12:00+30вюв8123751 0.0 10101004
15:00+31вюв8143793 0.0 10081534
18:00+29юв81639100 0.0 1006485
21:00+26ююв9203276 0.0 1006702